N6DQX Weather Reports


Display with metric or nautical units.
time (UTC)temp
F
wind
direction
speed
MPH
gust
MPH
rain 1hr
in
rain 24hr
in
rain mn
in
humidity
%
barometer
mb
20190719170004 63 343 0.0 5.0 0.00 0.00 0.00 50 1018.7
20190719165504 63 342 0.0 3.0 0.00 0.00 0.00 52 1018.8
20190719165004 62 342 2.0 5.0 0.00 0.00 0.00 54 1018.7
20190719164504 61 342 0.0 3.0 0.00 0.00 0.00 55 1018.7
20190719164004 61 342 2.0 5.0 0.00 0.00 0.00 56 1018.7
20190719163503 60 342 2.0 3.0 0.00 0.00 0.00 57 1018.7
20190719163004 59 342 1.0 3.0 0.00 0.00 0.00 56 1018.7
20190719162504 59 342 1.0 3.0 0.00 0.00 0.00 57 1018.7
20190719162004 59 342 0.0 0.0 0.00 0.00 0.00 58 1018.7
20190719161503 58 342 0.0 1.0 0.00 0.00 0.00 58 1018.8
20190719161003 58 342 1.0 3.0 0.00 0.00 0.00 58 1018.9
20190719160504 58 342 1.0 2.0 0.00 0.00 0.00 60 1018.9
20190719160003 58 342 1.0 3.0 0.00 0.00 0.00 60 1018.8
20190719155504 57 341 1.0 3.0 0.00 0.00 0.00 63 1018.8
20190719155004 56 341 1.0 3.0 0.00 0.00 0.00 63 1018.9
20190719154503 56 341 0.0 1.0 0.00 0.00 0.00 64 1018.9
20190719154004 56 341 0.0 2.0 0.00 0.00 0.00 63 1018.9
20190719153503 56 341 0.0 2.0 0.00 0.00 0.00 64 1018.8
20190719153004 55 341 2.0 3.0 0.00 0.00 0.00 66 1018.9
20190719152504 55 339 2.0 3.0 0.00 0.00 0.00 67 1018.8
20190719152007 54 337 0.0 3.0 0.00 0.00 0.00 69 1018.8
20190719151503 53 337 0.0 2.0 0.00 0.00 0.00 70 1018.8
20190719151004 52 337 0.0 3.0 0.00 0.00 0.00 72 1018.8
20190719150504 51 337 0.0 0.0 0.00 0.00 0.00 73 1018.8
20190719150004 50 337 0.0 2.0 0.00 0.00 0.00 75 1018.8
20190719145503 50 337 0.0 0.0 0.00 0.00 0.00 76 1018.7
20190719145004 49 337 0.0 0.0 0.00 0.00 0.00 77 1018.6
20190719144503 49 337 2.0 6.0 0.00 0.00 0.00 78 1018.5
20190719144007 49 336 0.0 0.0 0.00 0.00 0.00 79 1018.5
20190719143504 48 336 0.0 0.0 0.00 0.00 0.00 80 1018.5
20190719143004 48 336 0.0 0.0 0.00 0.00 0.00 81 1018.5
20190719142504 47 336 0.0 0.0 0.00 0.00 0.00 82 1018.5
20190719142004 47 336 0.0 0.0 0.00 0.00 0.00 83 1018.4
20190719141504 47 336 0.0 0.0 0.00 0.00 0.00 84 1018.4
20190719141004 46 336 0.0 0.0 0.00 0.00 0.00 84 1018.4
20190719140503 46 336 0.0 0.0 0.00 0.00 0.00 85 1018.4
20190719140004 46 336 0.0 0.0 0.00 0.00 0.00 84 1018.4
20190719135504 46 336 0.0 0.0 0.00 0.00 0.00 84 1018.4
20190719135004 46 336 0.0 0.0 0.00 0.00 0.00 84 1018.3
20190719134504 45 336 0.0 0.0 0.00 0.00 0.00 84 1018.1
20190719134004 45 336 0.0 0.0 0.00 0.00 0.00 84 1018.1
20190719133503 45 336 0.0 0.0 0.00 0.00 0.00 84 1018.2
20190719133005 45 336 0.0 0.0 0.00 0.00 0.00 84 1018.1
20190719132504 45 336 0.0 0.0 0.00 0.00 0.00 83 1018.1
20190719132004 45 336 0.0 0.0 0.00 0.00 0.00 83 1018.0
20190719131504 45 336 0.0 1.0 0.00 0.00 0.00 83 1018.0
20190719131005 45 336 0.0 2.0 0.00 0.00 0.00 83 1017.9
20190719130504 45 336 0.0 3.0 0.00 0.00 0.00 83 1017.9
20190719130004 45 336 1.0 3.0 0.00 0.00 0.00 83 1017.9
20190719125503 45 336 1.0 3.0 0.00 0.00 0.00 83 1017.8
20190719125004 45 336 2.0 5.0 0.00 0.00 0.00 82 1017.8
20190719124504 45 336 1.0 5.0 0.00 0.00 0.00 82 1017.6
20190719124004 46 336 1.0 3.0 0.00 0.00 0.00 82 1017.6
20190719123504 46 336 0.0 3.0 0.00 0.00 0.00 82 1017.6
20190719123005 46 336 0.0 3.0 0.00 0.00 0.00 82 1017.5
20190719122504 46 336 1.0 3.0 0.00 0.00 0.00 82 1017.4
20190719122004 46 336 2.0 5.0 0.00 0.00 0.00 82 1017.4
20190719121504 46 336 2.0 6.0 0.00 0.00 0.00 83 1017.5
20190719121004 46 336 2.0 5.0 0.00 0.00 0.00 83 1017.4
20190719120504 46 336 3.0 6.0 0.00 0.00 0.00 83 1017.3
20190719120004 46 337 2.0 6.0 0.00 0.00 0.00 83 1017.1
20190719115504 46 338 3.0 6.0 0.00 0.00 0.00 84 1017.1
20190719115004 46 338 3.0 7.0 0.00 0.00 0.00 84 1017.0
20190719114504 46 341 3.0 7.0 0.00 0.00 0.00 84 1017.0
20190719114003 46 343 4.0 8.0 0.00 0.00 0.00 84 1016.9
20190719113503 46 346 2.0 6.0 0.00 0.00 0.00 84 1016.8
20190719113005 46 346 2.0 7.0 0.00 0.00 0.00 85 1016.8
20190719112503 46 348 1.0 3.0 0.00 0.00 0.00 85 1016.8
20190719112004 46 348 1.0 3.0 0.00 0.00 0.00 85 1016.8
20190719111504 46 348 2.0 3.0 0.00 0.00 0.00 85 1016.7
20190719111003 45 348 3.0 6.0 0.00 0.00 0.00 85 1016.8
20190719110504 45 348 2.0 5.0 0.00 0.00 0.00 85 1016.7
20190719110003 45 348 3.0 6.0 0.00 0.00 0.00 85 1016.7
20190719105504 45 348 3.0 5.0 0.00 0.00 0.00 85 1016.6
20190719105004 46 348 2.0 3.0 0.00 0.00 0.00 85 1016.6
20190719104503 46 348 0.0 0.0 0.00 0.00 0.00 84 1016.5
20190719104003 46 348 0.0 0.0 0.00 0.00 0.00 84 1016.3
20190719103504 46 348 0.0 0.0 0.00 0.00 0.00 83 1016.3
20190719103003 46 348 0.0 0.0 0.00 0.00 0.00 82 1016.3
20190719102503 47 348 0.0 0.0 0.00 0.00 0.00 81 1016.3
20190719102004 47 348 0.0 0.0 0.00 0.00 0.00 80 1016.1
20190719101503 47 348 0.0 0.0 0.00 0.00 0.00 80 1016.1
20190719101004 47 348 0.0 0.0 0.00 0.00 0.00 80 1016.1
20190719100504 48 348 0.0 0.0 0.00 0.00 0.00 81 1016.0
20190719100003 48 348 0.0 0.0 0.00 0.00 0.00 79 1016.0
20190719095503 48 348 0.0 0.0 0.00 0.00 0.00 78 1015.9
20190719095004 48 348 0.0 0.0 0.00 0.00 0.00 79 1015.9
20190719094503 48 348 0.0 0.0 0.00 0.00 0.00 79 1015.9
20190719094003 48 348 0.0 0.0 0.00 0.00 0.00 79 1015.8
20190719093504 49 348 0.0 0.0 0.00 0.00 0.00 78 1015.7
20190719093003 49 348 0.0 0.0 0.00 0.00 0.00 78 1015.6
20190719092504 49 348 0.0 0.0 0.00 0.00 0.00 78 1015.7
20190719092004 49 348 0.0 0.0 0.00 0.00 0.00 77 1015.8
20190719091503 49 348 0.0 0.0 0.00 0.00 0.00 76 1015.9
20190719091004 49 348 0.0 0.0 0.00 0.00 0.00 76 1015.9
20190719090503 50 348 0.0 0.0 0.00 0.00 0.00 75 1015.8
20190719090005 50 348 0.0 0.0 0.00 0.00 0.00 75 1015.8
20190719085503 50 348 0.0 0.0 0.00 0.00 0.00 74 1015.8
20190719085003 50 348 0.0 0.0 0.00 0.00 0.00 73 1015.8
20190719084504 50 348 0.0 0.0 0.00 0.00 0.00 73 1015.7
20190719084003 50 348 0.0 0.0 0.00 0.00 0.00 73 1015.7
20190719083504 51 348 1.0 2.0 0.00 0.00 0.00 73 1015.8
20190719083004 51 348 0.0 5.0 0.00 0.00 0.00 72 1015.8
20190719082504 51 348 2.0 3.0 0.00 0.00 0.00 71 1015.9
20190719082004 51 348 1.0 2.0 0.00 0.00 0.00 71 1015.8
20190719081503 51 348 0.0 5.0 0.00 0.00 0.00 70 1015.8
20190719081004 51 348 3.0 6.0 0.00 0.00 0.00 70 1015.8
20190719080503 52 350 3.0 6.0 0.00 0.00 0.00 70 1015.7
20190719080003 52 351 2.0 5.0 0.00 0.00 0.00 69 1015.7
20190719075504 52 351 2.0 3.0 0.00 0.00 0.00 68 1015.6
20190719075003 52 351 1.0 2.0 0.00 0.00 0.00 68 1015.6
20190719074505 53 351 0.0 3.0 0.00 0.00 0.00 67 1015.6
20190719074003 53 351 2.0 6.0 0.00 0.00 0.00 67 1015.6
20190719073504 53 351 3.0 5.0 0.00 0.00 0.00 66 1015.6
20190719073003 53 351 3.0 6.0 0.00 0.00 0.00 66 1015.5
20190719072504 53 351 2.0 3.0 0.00 0.00 0.00 65 1015.5
20190719072004 54 351 1.0 5.0 0.00 0.00 0.00 64 1015.5
20190719071504 54 354 1.0 5.0 0.00 0.00 0.00 64 1015.4
20190719071004 54 355 2.0 6.0 0.00 0.00 0.00 64 1015.4
20190719070503 54 355 2.0 6.0 0.00 0.00 0.00 63 1015.2
20190719070004 55 355 2.0 6.0 0.00 0.00 0.00 63 1015.2
20190719065504 55 355 2.0 8.0 0.00 0.00 0.00 63 1015.2
20190719065004 55 354 5.0 10.0 0.00 0.00 0.00 62 1015.1
20190719064503 55 347 7.0 12.0 0.00 0.00 0.00 62 1015.0
20190719064003 55 346 6.0 10.0 0.00 0.00 0.00 62 1015.0
20190719063504 55 352 7.0 12.0 0.00 0.00 0.00 62 1015.1
20190719063004 56 2 6.0 10.0 0.00 0.00 0.00 62 1015.1
20190719062504 56 355 5.0 7.0 0.00 0.00 0.00 62 1015.2
20190719062004 56 5 3.0 8.0 0.00 0.00 0.00 62 1015.1
20190719061504 56 338 5.0 10.0 0.00 0.00 0.00 62 1015.1
20190719061004 56 349 6.0 9.0 0.00 0.00 0.00 62 1015.0
20190719060503 57 25 3.0 7.0 0.00 0.00 0.00 62 1015.0
20190719060004 57 26 0.0 3.0 0.00 0.00 0.00 61 1015.1
20190719055504 57 26 0.0 3.0 0.00 0.00 0.00 61 1015.1
20190719055004 57 26 0.0 3.0 0.00 0.00 0.00 60 1015.1
20190719054504 58 26 1.0 3.0 0.00 0.00 0.00 60 1015.0
20190719054004 58 26 4.0 7.0 0.00 0.00 0.00 60 1015.0
20190719053503 58 5 2.0 9.0 0.00 0.00 0.00 60 1014.9
20190719053004 58 15 3.0 6.0 0.00 0.00 0.00 60 1014.9
20190719052503 58 18 4.0 10.0 0.00 0.00 0.00 59 1015.0
20190719052004 58 24 2.0 8.0 0.00 0.00 0.00 59 1015.1
20190719051503 59 5 3.0 8.0 0.00 0.00 0.00 59 1015.0
20190719051004 59 5 3.0 9.0 0.00 0.00 0.00 58 1015.0
20190719050503 59 355 4.0 7.0 0.00 0.00 0.00 58 1014.9
20190719050004 59 355 3.0 9.0 0.00 0.00 0.00 58 1014.9
20190719045504 59 354 5.0 10.0 0.00 0.00 0.00 58 1015.0
20190719045004 60 354 5.0 12.0 0.00 0.00 0.00 57 1014.9
20190719044504 60 10 6.0 12.0 0.00 0.00 0.00 57 1014.7
20190719044004 60 4 6.0 12.0 0.00 0.00 0.00 57 1014.7
20190719043504 60 349 8.0 12.0 0.00 0.00 0.00 56 1014.6
20190719043004 61 358 4.0 12.0 0.00 0.00 0.00 56 1014.5
20190719042504 61 340 7.0 12.0 0.00 0.00 0.00 56 1014.6
20190719042004 61 1 5.0 10.0 0.00 0.00 0.00 56 1014.5
20190719041504 61 334 10.0 17.0 0.00 0.00 0.00 55 1014.4
20190719041004 62 349 8.0 16.0 0.00 0.00 0.00 55 1014.3
20190719040503 62 326 7.0 14.0 0.00 0.00 0.00 55 1014.2
20190719040004 62 332 9.0 17.0 0.00 0.00 0.00 54 1014.0
20190719035504 63 326 12.0 20.0 0.00 0.00 0.00 54 1014.0
20190719035004 63 339 8.0 16.0 0.00 0.00 0.00 53 1013.9
20190719034503 63 334 10.0 20.0 0.00 0.00 0.00 52 1013.8
20190719034004 64 326 7.0 16.0 0.00 0.00 0.00 50 1013.8
20190719033504 64 319 6.0 12.0 0.00 0.00 0.00 50 1013.7
20190719033004 64 313 8.0 16.0 0.00 0.00 0.00 49 1013.7
20190719032504 65 319 10.0 16.0 0.00 0.00 0.00 47 1013.6
20190719032005 65 322 7.0 12.0 0.00 0.00 0.00 47 1013.6
20190719031504 66 325 13.0 22.0 0.00 0.00 0.00 47 1013.6
20190719031004 66 312 11.0 17.0 0.00 0.00 0.00 46 1013.6
20190719030504 66 319 6.0 16.0 0.00 0.00 0.00 45 1013.5
20190719030005 67 320 12.0 20.0 0.00 0.00 0.00 45 1013.5
20190719025504 67 311 7.0 16.0 0.00 0.00 0.00 44 1013.4
20190719025004 67 315 9.0 15.0 0.00 0.00 0.00 44 1013.3
20190719024504 68 311 7.0 20.0 0.00 0.00 0.00 42 1013.3
20190719024003 68 329 7.0 15.0 0.00 0.00 0.00 43 1013.2
20190719023503 69 311 12.0 20.0 0.00 0.00 0.00 42 1013.1
20190719023004 69 312 10.0 18.0 0.00 0.00 0.00 40 1013.1
20190719022504 70 310 12.0 18.0 0.00 0.00 0.00 39 1013.0
20190719022004 70 293 12.0 23.0 0.00 0.00 0.00 38 1013.0
20190719021504 71 325 12.0 17.0 0.00 0.00 0.00 38 1013.0
20190719021003 71 313 12.0 16.0 0.00 0.00 0.00 37 1013.0
20190719020503 71 337 13.0 21.0 0.00 0.00 0.00 37 1012.9
20190719020003 72 337 13.0 20.0 0.00 0.00 0.00 37 1012.9
20190719015503 72 346 11.0 16.0 0.00 0.00 0.00 35 1012.9
20190719015004 72 346 14.0 20.0 0.00 0.00 0.00 35 1012.9
20190719014503 73 328 13.0 21.0 0.00 0.00 0.00 34 1012.9
20190719014003 73 326 12.0 20.0 0.00 0.00 0.00 34 1012.8
20190719013503 73 355 12.0 20.0 0.00 0.00 0.00 34 1012.8
20190719013004 74 357 13.0 20.0 0.00 0.00 0.00 33 1012.8
20190719012504 74 359 10.0 18.0 0.00 0.00 0.00 32 1012.8
20190719012004 75 357 10.0 20.0 0.00 0.00 0.00 32 1012.7
20190719011504 75 347 9.0 16.0 0.00 0.00 0.00 33 1012.7
20190719011004 75 326 10.0 17.0 0.00 0.00 0.00 34 1012.7
20190719010503 76 345 9.0 17.0 0.00 0.00 0.00 34 1012.7
20190719010003 76 355 10.0 17.0 0.00 0.00 0.00 33 1012.7
20190719005503 76 318 12.0 20.0 0.00 0.00 0.00 33 1012.7
20190719005003 76 333 9.0 20.0 0.00 0.00 0.00 33 1012.8
20190719004503 77 346 12.0 20.0 0.00 0.00 0.00 33 1012.8
20190719004003 77 336 13.0 20.0 0.00 0.00 0.00 32 1012.8
20190719003504 77 339 9.0 20.0 0.00 0.00 0.00 35 1012.7
20190719003004 78 335 11.0 20.0 0.00 0.00 0.00 34 1012.7
20190719002504 78 326 13.0 18.0 0.00 0.00 0.00 35 1012.7
20190719002003 78 347 12.0 20.0 0.00 0.00 0.00 35 1012.7
20190719001504 78 314 12.0 20.0 0.00 0.00 0.00 34 1012.8
20190719001004 78 356 12.0 20.0 0.00 0.00 0.00 33 1012.7
20190719000504 78 302 12.0 20.0 0.00 0.00 0.00 33 1012.6
20190719000003 78 350 14.0 20.0 0.00 0.00 0.00 33 1012.6
20190718235504 79 340 9.0 20.0 0.00 0.00 0.00 33 1012.6
20190718235004 79 325 15.0 24.0 0.00 0.00 0.00 33 1012.6
20190718234504 79 333 14.0 20.0 0.00 0.00 0.00 33 1012.6
20190718234004 78 333 14.0 20.0 0.00 0.00 0.00 33 1012.6
20190718233504 78 342 13.0 20.0 0.00 0.00 0.00 33 1012.7
20190718233003 79 351 13.0 21.0 0.00 0.00 0.00 32 1012.6
20190718232503 80 345 13.0 23.0 0.00 0.00 0.00 30 1012.6
20190718232003 80 341 12.0 21.0 0.00 0.00 0.00 32 1012.7
20190718231503 80 318 12.0 22.0 0.00 0.00 0.00 31 1012.6
20190718231004 80 348 10.0 17.0 0.00 0.00 0.00 30 1012.7
20190718230503 80 326 12.0 20.0 0.00 0.00 0.00 31 1012.7
20190718230004 81 304 12.0 20.0 0.00 0.00 0.00 29 1012.7
20190718225503 81 307 10.0 18.0 0.00 0.00 0.00 26 1012.7
20190718225004 81 317 9.0 21.0 0.00 0.00 0.00 28 1012.7
20190718224504 81 301 8.0 16.0 0.00 0.00 0.00 29 1012.7
20190718224004 81 334 12.0 20.0 0.00 0.00 0.00 28 1012.7
20190718223503 81 349 11.0 20.0 0.00 0.00 0.00 30 1012.6
20190718223003 80 322 10.0 18.0 0.00 0.00 0.00 28 1012.6
20190718222503 81 342 9.0 17.0 0.00 0.00 0.00 28 1012.6
20190718222003 81 333 12.0 18.0 0.00 0.00 0.00 28 1012.7
20190718221503 82 331 8.0 18.0 0.00 0.00 0.00 28 1012.7
20190718221004 82 331 6.0 17.0 0.00 0.00 0.00 29 1012.7
20190718220503 81 340 8.0 20.0 0.00 0.00 0.00 29 1012.6
20190718220004 81 344 10.0 20.0 0.00 0.00 0.00 29 1012.6
20190718215503 81 316 13.0 20.0 0.00 0.00 0.00 26 1012.6
20190718215003 81 317 11.0 16.0 0.00 0.00 0.00 29 1012.7
20190718214504 81 325 7.0 16.0 0.00 0.00 0.00 30 1012.7
20190718214003 82 348 11.0 20.0 0.00 0.00 0.00 29 1012.6
20190718213503 81 313 9.0 17.0 0.00 0.00 0.00 29 1012.7
20190718213003 81 339 7.0 15.0 0.00 0.00 0.00 28 1012.7
20190718212503 81 316 9.0 15.0 0.00 0.00 0.00 29 1012.7
20190718212004 82 298 13.0 21.0 0.00 0.00 0.00 30 1012.8
20190718211503 82 336 7.0 17.0 0.00 0.00 0.00 28 1012.8
20190718211004 82 306 10.0 16.0 0.00 0.00 0.00 28 1012.8
20190718210503 82 343 8.0 17.0 0.00 0.00 0.00 30 1012.9
20190718210003 82 302 6.0 13.0 0.00 0.00 0.00 30 1012.9
20190718205503 82 356 7.0 13.0 0.00 0.00 0.00 30 1012.9
20190718205003 81 305 10.0 16.0 0.00 0.00 0.00 30 1012.9
20190718204503 81 315 7.0 15.0 0.00 0.00 0.00 30 1013.0
20190718204003 81 339 9.0 18.0 0.00 0.00 0.00 31 1013.0
20190718203503 81 323 5.0 14.0 0.00 0.00 0.00 32 1013.1
20190718203004 80 315 7.0 15.0 0.00 0.00 0.00 34 1013.0
20190718202503 80 340 7.0 17.0 0.00 0.00 0.00 35 1013.1
20190718202003 80 354 9.0 16.0 0.00 0.00 0.00 34 1013.1
20190718201504 80 337 10.0 20.0 0.00 0.00 0.00 35 1013.1
20190718201003 80 329 8.0 17.0 0.00 0.00 0.00 37 1013.0
20190718200503 79 338 9.0 15.0 0.00 0.00 0.00 37 1013.1
20190718200003 78 345 7.0 17.0 0.00 0.00 0.00 39 1013.0
20190718195504 79 356 7.0 14.0 0.00 0.00 0.00 38 1013.2
20190718195004 80 10 8.0 15.0 0.00 0.00 0.00 38 1013.1
20190718194504 81 28 6.0 15.0 0.00 0.00 0.00 38 1013.1
20190718194004 81 329 6.0 12.0 0.00 0.00 0.00 38 1013.1
20190718193503 80 34 6.0 13.0 0.00 0.00 0.00 39 1013.2
20190718193003 80 4 5.0 14.0 0.00 0.00 0.00 38 1013.3
20190718192503 79 8 3.0 13.0 0.00 0.00 0.00 40 1013.2
20190718192003 78 9 5.0 9.0 0.00 0.00 0.00 41 1013.2
20190718191503 79 317 3.0 9.0 0.00 0.00 0.00 40 1013.2
20190718191003 79 330 4.0 8.0 0.00 0.00 0.00 41 1013.1
20190718190503 79 336 1.0 8.0 0.00 0.00 0.00 41 1013.1
20190718190004 78 354 6.0 12.0 0.00 0.00 0.00 41 1013.1
20190718185504 78 349 6.0 12.0 0.00 0.00 0.00 42 1013.1
20190718185003 78 349 2.0 6.0 0.00 0.00 0.00 42 1013.2
20190718184503 78 0 2.0 7.0 0.00 0.00 0.00 44 1013.3
20190718184004 76 324 0.0 5.0 0.00 0.00 0.00 44 1013.3
20190718183504 75 323 3.0 9.0 0.00 0.00 0.00 44 1013.4
20190718183004 76 314 2.0 7.0 0.00 0.00 0.00 44 1013.4
20190718182504 74 21 4.0 8.0 0.00 0.00 0.00 49 1013.5
20190718182003 74 312 1.0 3.0 0.00 0.00 0.00 47 1013.4
20190718181503 75 315 4.0 7.0 0.00 0.00 0.00 46 1013.5
20190718181003 75 76 1.0 3.0 0.00 0.00 0.00 45 1013.4
20190718180503 76 76 3.0 6.0 0.00 0.00 0.00 46 1013.5
20190718180003 76 103 2.0 7.0 0.00 0.00 0.00 45 1013.4
20190718175503 77 109 2.0 9.0 0.00 0.00 0.00 45 1013.4
20190718175003 76 28 1.0 5.0 0.00 0.00 0.00 46 1013.5
20190718174503 74 28 3.0 7.0 0.00 0.00 0.00 50 1013.5
20190718174003 72 96 1.0 6.0 0.00 0.00 0.00 51 1013.7
20190718173503 72 271 0.0 3.0 0.00 0.00 0.00 52 1013.8
20190718173003 71 271 0.0 0.0 0.00 0.00 0.00 53 1013.9
20190718172503 72 271 3.0 8.0 0.00 0.00 0.00 52 1014.0
20190718172003 72 291 3.0 8.0 0.00 0.00 0.00 51 1014.0
20190718171503 72 5 2.0 5.0 0.00 0.00 0.00 54 1014.0
20190718171003 70 0 3.0 5.0 0.00 0.00 0.00 56 1013.9
20190718170503 70 327 6.0 9.0 0.00 0.00 0.00 57 1014.0